Regional Weather Roundup
Issued by NWS

Home | Current Version | Previous Version | Graphics & Text | Print | Product List | Glossary On
Versions: 1 2 3 4 5 6 7 8 9 10 11 12 13 14 15 16 17 18 19 20 21 22 23 24 25 26 27 28 29 30 31 32 33 34 35 36 37 38 39 40 41 42 43 44 45 46 47 48 49
000
ASUS45 KCYS 032110
RWRWY

WYOMING REGIONAL WEATHER ROUNDUP
NATIONAL WEATHER SERVICE CHEYENNE WY
300 PM MDT SUN MAY 03 2015

NOTE:  "FAIR" INDICATES FEW OR NO CLOUDS BELOW 12,000 FEET
WITH NO SIGNIFICANT WEATHER AND/OR OBSTRUCTIONS TO VISIBILITY.

WYZ001-032200-
YELLOWSTONE NATIONAL PARK

CITY           SKY/WX    TMP DP  RH WIND       PRES   REMARKS
LK YELLOWSTONE   N/A     58  20  22 VRB3      30.05F
W YELLOWSTONE  NOT AVBL

$$
WYZ002>013-054>058-071-098>099-032200-
NORTHERN WYOMING

CITY           SKY/WX    TMP DP  RH WIND       PRES   REMARKS
JACKSON        PTSUNNY   63  28  27 VRB6      29.99F
CODY           CLOUDY    55  36  47 N10       30.00R
GREYBULL       FAIR      68  32  26 W6        29.92F
WORLAND        FAIR      67  34  29 CALM      29.91F
SHERIDAN       FAIR      65  39  38 E8        29.98F
BUFFALO        FAIR      64  38  38 SE9G21    30.00F
GILLETTE       FAIR      65  36  34 NE8       30.00F
HULETT         FAIR      63  37  39 NE10G18   30.03S
NEWCASTLE      FAIR      66  32  28 SW12      29.98F

$$
WYZ014>020-022>026-101>103-032200-
CENTRAL WYOMING

CITY           SKY/WX    TMP DP  RH WIND       PRES   REMARKS
BIG PINEY      LGT RAIN  49  43  80 N14G22    30.07F
PINEDALE       LGT RAIN  50  36  57 W22       30.10R
DUBOIS         CLOUDY    54  30  40 N23G37    30.01R
LANDER         FAIR      65  34  31 CALM      29.93S
RIVERTON       FAIR      68  31  25 CALM      29.94F
CASPER         PTSUNNY   63  37  38 NE8       29.97F
DOUGLAS        FAIR      67  37  33 S10       29.98F

$$
WYZ021-027>030-104>119-032200-
SOUTHERN WYOMING

CITY           SKY/WX    TMP DP  RH WIND       PRES   REMARKS
EVANSTON       PTSUNNY   63  37  38 SW12      30.01S
KEMMERER       FAIR      63  32  31 NW8       30.03R
FORT BRIDGER   MOCLDY    59  37  44 SE15      30.05S
ROCK SPRINGS   PTSUNNY   53  34  48 W40G56    30.03R
DIXON          FAIR      69  29  22 W6        30.01F
RAWLINS        FAIR      68  31  25 W10       29.99F
SARATOGA       MOCLDY    63  32  31 CALM      30.02F
LARAMIE        PTSUNNY   56  33  42 NW26G36   30.06F
CHEYENNE       TSTM      58  40  51 SW10      30.06R
TORRINGTON     FAIR      71  39  31 E8G22     29.95S
PINE BLUFFS    FAIR      68  37  32 E14G21    29.98S

$$


USA.gov is the U.S. government's official web portal to all federal, state and local government web resources and services.